Weather Roundup
Issued by NWS Chicago, IL

Home | Current Version | Previous Version | Graphics & Text | Print | Product List | Glossary On
Versions: 1 2 3 4 5 6 7 8 9 10 11 12 13 14 15 16 17 18 19 20 21 22 23 24 25 26 27 28 29 30 31 32 33 34 35 36 37 38 39 40 41 42 43 44 45 46 47 48 49 50
000
NZUS59 KLOT 060100
HRRLOT

CHICAGO AREA WEATHER ROUNDUP
NATIONAL WEATHER SERVICE CHICAGO/ROMEOVILLE IL
700 PM CST THU MAR 05 2015

NOTE: "FAIR" INDICATES FEW OR NO CLOUDS BELOW 12,000 FEET WITH NO
SIGNIFICANT WEATHER AND/OR OBSTRUCTIONS TO VISIBILITY.

* THESE STATIONS ARE NOT UNDER NWS QUALITY CONTROL. THEY ALSO MAY NOT
  REPORT WEATHER SUCH AS PRECIPITATION OR FOG.

ILZ005-006-012>014-019>023-060200-
NORTHEAST ILLINOIS

CITY           SKY/WX    TMP DP  RH WIND       PRES   REMARKS
OHARE            N/A     11  -2  56 W9        30.53R WCI  -2
MIDWAY         CLEAR     14  -1  51 W12       30.55R WCI   0
AURORA         CLEAR     10  -3  55 SW3       30.54R
WAUKEGAN       PTCLDY     9  -5  53 W3        30.51R
DUPAGE AIRPORT CLEAR      8  -3  61 W5        30.52R WCI   0
WHEELING       CLEAR     12  -3  51 W6        30.55R WCI   3
NORTHERLY IS     N/A     16   0  49 W8          N/A  WCI   5
$$

WIZ051-052-058>065-066-070>072-060200-
SOUTHEAST WISCONSIN

CITY           SKY/WX    TMP DP  RH WIND       PRES   REMARKS
MILWAUKEE      CLEAR     13  -6  42 W6        30.49S WCI   4
KENOSHA*       PTCLDY     5  -7  57 W8        30.50R WCI  -8
RACINE*        PTCLDY    10  -6  48 SW6       30.52R WCI   0
WAUKESHA       CLEAR      9  -6  52 SW6       30.48R WCI  -1
$$

INZ001>003-010>013-019-020-060200-
NORTHWEST INDIANA

CITY           SKY/WX    TMP DP  RH WIND       PRES   REMARKS
GARY*          CLEAR     16  -2  45 W14       30.55R WCI   1
MICHIGAN CITY* NOT AVBL
RENSSELAER*    NOT AVBL
$$

LMZ740>746-060200-
SOUTHERN LAKE MICHIGAN

STATION/POSITION TIME  SKY/WX   TEMP WIND        PRES    VSBY
                                AIR  DIR/SP/G
                 (UTC)          (F)  (DEG/KT/KT) (MB)    (MI)
HARRISON CRIB    0000            16  270/ 10/ 13   N/A
BURNHAM HARBOR   0100            16  280/ 11       N/A
CALUMET HARBOR   0000            16  230/  7/ 10 1032.3R
BURNS HARBOR     NOT AVBL
MICHIGAN CITY    0000            15  330/  4/  4   N/A
$$

ABBREVIATIONS USED IN REMARKS
   TC - TEMPERATURE IN CELSIUS
  WCI - WIND CHILL INDEX
   HX - HEAT INDEX
  VSB - VISIBILITY
$$



USA.gov is the U.S. government's official web portal to all federal, state and local government web resources and services.